IW0HP-13 Weather Reports


time (UTC)temp
C
wind
direction
speed
KPH
gust
KPH
rain 1hr
cm
rain 24hr
cm
rain mn
cm
humidity
%
barometer
mb
20260507103248 21 0.0 0.0 0.00 0.00 0.00 49 1014.5
20260507101248 21 0.0 0.0 0.00 0.00 0.00 48 1014.7
20260507095247 21 0.0 0.0 0.00 0.00 0.00 50 1014.8
20260507093247 21 0.0 0.0 0.00 0.00 0.00 49 1014.9
20260507091247 21 0.0 0.0 0.00 0.00 0.00 50 1014.7
20260507085246 20 0.0 0.0 0.00 0.00 0.00 52 1014.7
20260507083246 20 0.0 0.0 0.00 0.00 0.00 52 1014.8
20260507081246 20 0.0 0.0 0.00 0.00 0.00 53 1015.0
20260507075246 19 0.0 0.0 0.00 0.00 0.00 55 1015.2
20260507073246 19 0.0 0.0 0.00 0.00 0.00 56 1015.1
20260507071245 19 0.0 0.0 0.00 0.00 0.00 57 1015.2
20260507065245 18 0.0 0.0 0.00 0.00 0.00 59 1015.2
20260507063243 18 0.0 0.0 0.00 0.00 0.00 60 1015.1
20260507061243 18 0.0 0.0 0.00 0.00 0.00 60 1014.9
20260507055243 17 0.0 0.0 0.00 0.00 0.00 63 1014.9
20260507051243 17 0.0 0.0 0.00 0.00 0.00 66 1014.9
20260507045243 16 0.0 0.0 0.00 0.00 0.00 67 1014.8
20260507043242 16 0.0 0.0 0.00 0.00 0.00 67 1014.7
20260507041242 16 0.0 0.0 0.00 0.00 0.00 67 1014.9
20260507035241 16 0.0 0.0 0.00 0.00 0.00 68 1014.7
20260507033241 16 0.0 0.0 0.00 0.00 0.00 67 1014.8
20260507031241 16 0.0 0.0 0.00 0.00 0.00 67 1014.7
20260507025241 16 0.0 0.0 0.00 0.00 0.00 68 1014.6
20260507023240 16 0.0 0.0 0.00 0.00 0.00 68 1014.8
20260507021240 16 0.0 0.0 0.00 0.00 0.00 68 1014.8
20260507015240 17 0.0 0.0 0.00 0.00 0.00 68 1014.8
20260507013240 17 0.0 0.0 0.00 0.00 0.00 68 1014.6
20260507011239 17 0.0 0.0 0.00 0.00 0.00 67 1014.6
20260507005239 17 0.0 0.0 0.00 0.00 0.00 66 1014.7
20260507003239 17 0.0 0.0 0.00 0.00 0.00 64 1014.8
20260507001239 17 0.0 0.0 0.00 0.00 0.00 61 1014.7
20260506235238 18 0.0 0.0 0.00 0.00 0.00 61 1014.7
20260506233238 18 0.0 0.0 0.00 0.00 0.00 63 1014.7
20260506231238 18 0.0 0.0 0.00 0.00 0.00 62 1014.4
20260506225238 18 0.0 0.0 0.00 0.00 0.00 61 1014.4
20260506223237 18 0.0 0.0 0.00 0.00 0.00 61 1014.4
20260506221237 18 0.0 0.0 0.00 0.00 0.00 60 1014.5
20260506215237 18 0.0 0.0 0.00 0.00 0.00 58 1014.5
20260506213236 18 0.0 0.0 0.00 0.00 0.00 57 1014.6
20260506211236 18 0.0 0.0 0.00 0.00 0.00 55 1014.6
20260506205236 19 0.0 0.0 0.00 0.00 0.00 53 1014.6
20260506203236 19 0.0 0.0 0.00 0.00 0.00 52 1014.7
20260506201235 19 0.0 0.0 0.00 0.00 0.00 51 1014.6
20260506195235 20 0.0 0.0 0.00 0.00 0.00 49 1014.5
20260506193235 20 0.0 0.0 0.00 0.00 0.00 50 1014.4
20260506191235 20 0.0 0.0 0.00 0.00 0.00 52 1014.3
20260506185235 20 0.0 0.0 0.00 0.00 0.00 53 1014.1
20260506183234 20 0.0 0.0 0.00 0.00 0.00 54 1014.0
20260506181234 20 0.0 0.0 0.00 0.00 0.00 52 1013.9
20260506175234 20 0.0 0.0 0.00 0.00 0.00 54 1013.8
20260506173234 20 0.0 0.0 0.00 0.00 0.00 55 1013.8
20260506171233 20 0.0 0.0 0.00 0.00 0.00 56 1013.8
20260506165233 20 0.0 0.0 0.00 0.00 0.00 51 1013.8
20260506163233 20 0.0 0.0 0.00 0.00 0.00 52 1013.7
20260506161233 20 0.0 0.0 0.00 0.00 0.00 50 1013.7
20260506155232 20 0.0 0.0 0.00 0.00 0.00 51 1013.8
20260506153232 21 0.0 0.0 0.00 0.00 0.00 48 1013.9
20260506151232 21 0.0 0.0 0.00 0.00 0.00 49 1013.8
20260506145231 21 0.0 0.0 0.00 0.00 0.00 47 1013.9
20260506143231 21 0.0 0.0 0.00 0.00 0.00 47 1013.9
20260506141231 21 0.0 0.0 0.00 0.00 0.00 47 1014.0
20260506135231 22 0.0 0.0 0.00 0.00 0.00 46 1013.8
20260506133230 22 0.0 0.0 0.00 0.00 0.00 46 1014.1
20260506131230 22 0.0 0.0 0.00 0.00 0.00 43 1013.9
20260506125230 22 0.0 0.0 0.00 0.00 0.00 42 1013.9
20260506123230 22 0.0 0.0 0.00 0.00 0.00 41 1013.8
20260506121229 23 0.0 0.0 0.00 0.00 0.00 41 1013.9
20260506115229 22 0.0 0.0 0.00 0.00 0.00 38 1013.6
20260506113229 22 0.0 0.0 0.00 0.00 0.00 38 1013.8
20260506111228 22 0.0 0.0 0.00 0.00 0.00 38 1013.9
20260506105228 22 0.0 0.0 0.00 0.00 0.00 38 1014.0